EW4964 Weather Reports


Display with metric or nautical units.
time (UTC)temp
F
wind
direction
speed
MPH
gust
MPH
rain 1hr
in
rain 24hr
in
rain mn
in
humidity
%
barometer
mb
20260831043005 62 315 0.0 2.0 0.00 0.00 0.00 35 1014.2
20260831041505 62 314 0.0 1.0 0.00 0.00 0.00 34 1014.3
20260831040005 62 314 0.0 1.0 0.00 0.00 0.00 34 1014.3
20260831034506 62 315 0.0 1.0 0.00 0.00 0.00 34 1014.5
20260831033005 61 314 0.0 2.0 0.00 0.00 0.00 37 1014.4
20260831031505 60 314 0.0 1.0 0.00 0.00 0.00 37 1014.4
20260831030005 60 314 0.0 1.0 0.00 0.00 0.00 38 1014.7
20260831024505 60 314 0.0 1.0 0.00 0.00 0.00 37 1014.7
20260831023005 61 314 0.0 1.0 0.00 0.00 0.00 38 1014.6
20260831021505 61 0 0.0 0.0 0.00 0.00 0.00 38 1014.7
20260831020005 61 314 0.0 1.0 0.00 0.00 0.00 38 1014.8
20260831014504 61 314 0.0 1.0 0.00 0.00 0.00 38 1015.0
20260831011504 61 314 0.0 1.0 0.00 0.00 0.00 37 1015.0
20260831010005 61 314 0.0 2.0 0.00 0.00 0.00 37 1015.1
20260831004505 61 314 1.0 4.0 0.00 0.00 0.00 38 1015.4
20260831003005 61 314 0.0 1.0 0.00 0.00 0.00 37 1015.1
20260831000005 61 314 0.0 1.0 0.00 0.00 0.00 36 1015.4
20260830234505 62 314 0.0 1.0 0.00 0.00 0.00 33 1015.3
20260830231504 62 314 0.0 1.0 0.00 0.00 0.00 33 1015.6
20260830230007 63 314 0.0 1.0 0.00 0.00 0.00 32 1015.4
20260830224507 64 315 0.0 2.0 0.00 0.00 0.00 32 1015.5
20260830223008 64 314 0.0 2.0 0.00 0.00 0.00 31 1015.6
20260830220011 65 315 0.0 2.0 0.00 0.00 0.00 31 1015.6
20260830214508 65 314 1.0 2.0 0.00 0.00 0.00 31 1015.7
20260830213007 64 314 0.0 2.0 0.00 0.00 0.00 31 1015.4
20260830211508 65 315 0.0 1.0 0.00 0.00 0.00 31 1015.5
20260830210007 65 315 0.0 2.0 0.00 0.00 0.00 31 1015.6
20260830203007 65 315 0.0 2.0 0.00 0.00 0.00 31 1015.6
20260830201507 65 315 0.0 1.0 0.00 0.00 0.00 31 1015.5
20260830200007 65 314 0.0 2.0 0.00 0.00 0.00 32 1015.5
20260830194507 65 315 0.0 2.0 0.00 0.00 0.00 32 1015.5
20260830193008 65 314 1.0 3.0 0.00 0.00 0.00 32 1015.5
20260830191507 66 315 0.0 2.0 0.00 0.00 0.00 32 1015.4
20260830190007 66 314 1.0 3.0 0.00 0.00 0.00 31 1015.4
20260830184507 66 314 2.0 4.0 0.00 0.00 0.00 31 1015.5
20260830183008 67 314 1.0 4.0 0.00 0.00 0.00 31 1015.3
20260830181507 67 314 1.0 2.0 0.00 0.00 0.00 31 1015.3
20260830180007 67 314 0.0 2.0 0.00 0.00 0.00 31 1015.1
20260830174507 68 314 1.0 2.0 0.00 0.00 0.00 31 1014.9
20260830164507 72 314 2.0 6.0 0.00 0.00 0.00 24 1014.7
20260830163007 73 304 3.0 6.0 0.00 0.00 0.00 24 1014.9
20260830161506 75 269 4.0 11.0 0.00 0.00 0.00 23 1014.7
20260830160007 75 272 4.0 8.0 0.00 0.00 0.00 23 1014.9
20260830153006 76 252 5.0 10.0 0.00 0.00 0.00 23 1014.9
20260830150006 77 264 4.0 11.0 0.00 0.00 0.00 23 1015.0
20260830144507 77 242 3.0 8.0 0.00 0.00 0.00 23 1015.0
20260830143007 75 277 5.0 11.0 0.00 0.00 0.00 24 1014.9
20260830134506 76 259 6.0 11.0 0.00 0.00 0.00 24 1014.9
20260830133006 75 275 6.0 13.0 0.00 0.00 0.00 24 1015.1
20260830131506 75 327 5.0 10.0 0.00 0.00 0.00 24 1015.0
20260830124506 74 239 8.0 13.0 0.00 0.00 0.00 24 1015.2
20260830123006 73 270 7.0 12.0 0.00 0.00 0.00 24 1015.4
20260830121506 73 301 6.0 12.0 0.00 0.00 0.00 24 1015.4
20260830120006 75 288 7.0 17.0 0.00 0.00 0.00 23 1015.4
20260830114506 75 271 5.0 11.0 0.00 0.00 0.00 24 1015.4
20260830113006 74 268 6.0 9.0 0.00 0.00 0.00 24 1015.2
20260830104506 72 242 8.0 15.0 0.00 0.00 0.00 24 1015.5
20260830103006 72 260 7.0 11.0 0.00 0.00 0.00 23 1015.7
20260830100006 72 247 7.0 12.0 0.00 0.00 0.00 24 1015.8
20260830094506 72 229 5.0 14.0 0.00 0.00 0.00 25 1015.9
20260830093006 70 293 4.0 11.0 0.00 0.00 0.00 29 1016.0
20260830091505 70 266 4.0 10.0 0.00 0.00 0.00 29 1016.0
20260830090006 69 267 4.0 12.0 0.00 0.00 0.00 29 1016.1
20260830084506 69 240 4.0 8.0 0.00 0.00 0.00 29 1016.1
20260830083006 69 250 5.0 8.0 0.00 0.00 0.00 31 1016.4
20260830074505 67 200 4.0 8.0 0.00 0.00 0.00 32 1016.1
20260830073005 66 228 3.0 6.0 0.00 0.00 0.00 32 1016.1
20260830071506 65 201 3.0 6.0 0.00 0.00 0.00 33 1016.1
20260830070005 63 223 3.0 5.0 0.00 0.00 0.00 33 1016.2
20260830064505 62 231 2.0 6.0 0.00 0.00 0.00 34 1016.0
20260830063005 60 254 1.0 4.0 0.00 0.00 0.00 38 1016.1
20260830060005 60 239 2.0 4.0 0.00 0.00 0.00 39 1015.8
20260830054505 59 238 1.0 3.0 0.00 0.00 0.00 39 1015.9
20260830053006 58 285 0.0 2.0 0.00 0.00 0.00 41 1015.8
20260830051505 58 299 0.0 2.0 0.00 0.00 0.00 41 1015.9
20260830044505 56 270 0.0 1.0 0.00 0.00 0.00 41 1015.6